Regional Weather Roundup
Issued by NWS

Home | Current Version | Previous Version | Text Only | Print | Product List | Glossary Off
Versions: 1 2 3 4 5 6 7 8 9 10 11 12 13 14 15 16 17 18 19 20 21 22 23 24 25 26 27 28 29 30 31 32 33 34 35 36 37 38 39 40 41 42 43 44 45 46 47 48 49 50

767
ASUS43 KMKX 260000
RWRWI

WISCONSIN REGIONAL WEATHER ROUNDUP
NATIONAL WEATHER SERVICE MILWAUKEE/SULLIVAN WI
600 PM CST SAT FEB 25 2017

NOTE: "FAIR" INDICATES FEW OR NO CLOUDS BELOW 12,000 FEET WITH NO
SIGNIFICANT WEATHER AND/OR OBSTRUCTIONS TO VISIBILITY.

WIZ001-002-006>008-014>016-023>028-260100-
NORTHWEST WISCONSIN

CITY           SKY/WX    TMP DP  RH WIND       PRES   REMARKS
SUPERIOR ARPT  CLOUDY    29  15  55 SW8       29.79F WCI  21
ASHLAND        CLEAR     25  12  58 W8        29.80S WCI  16
6HR MIN TEMP:  22; 6HR MAX TEMP:  28;

HAYWARD        CLEAR     28  10  46 SW7       29.80S WCI  21
6HR MIN TEMP:  21; 6HR MAX TEMP:  30;

SIREN          MOCLDY    30  15  55 W7        29.83S WCI  23
CUMBERLAND     MOCLDY    28  14  54 W10       29.82F WCI  19
RICE LAKE      CLOUDY    29  14  54 CALM      29.85F
CHETEK         CLOUDY    28  13  52 SW3       29.85F
LADYSMITH      PTCLDY    26  10  50 SW7       29.84F WCI  19
EAU CLAIRE     NOT AVBL
MENOMONIE      CLOUDY    29  13  50 SW7       29.88S WCI  22
NEW RICHMOND   CLOUDY    30  15  54 SW13      29.86F WCI  20
OSCEOLA        CLOUDY    31  18  57 SW15      29.88F WCI  21
$$

WIZ003>005-009-010-017-018-260100-
NORTH CENTRAL WISCONSIN

CITY           SKY/WX    TMP DP  RH WIND       PRES   REMARKS
MANITOWISH WTR CLEAR     17   9  72 W3        29.75S
ARBOR VITAE    CLEAR     22  10  61 CALM        N/A
WOODRUFF       CLEAR     22  10  61 CALM        N/A
RHINELANDER    CLEAR     19   6  57 W8        29.77R WCI   9
6HR MIN TEMP:  17; 6HR MAX TEMP:  24; 6HR PCP: TRACE;

EAGLE RIVER    CLEAR     19   7  60 W6        29.75R WCI  11
LAND O LAKES   CLEAR     19  11  72 W3        29.76R
PHILLIPS       CLEAR     23   8  52 W5        29.79R WCI  17
TOMAHAWK       CLEAR     22   8  54 W6        29.80R WCI  14
MEDFORD        CLEAR     22   6  49 W7        29.82R WCI  14
MERRILL        NOT AVBL
$$

WIZ029-030-035-036-043>047-260100-
CENTRAL WISCONSIN

CITY           SKY/WX    TMP DP  RH WIND       PRES   REMARKS
WAUSAU         CLEAR     21   7  54 W14       29.83R WCI   8
6HR MIN TEMP:  16; 6HR MAX TEMP:  23;

MOSINEE        CLEAR     19   9  63 W10       29.86R WCI   8
MARSHFIELD     CLEAR     20   7  57 W8        29.86R WCI  10
6HR MIN TEMP:  16; 6HR MAX TEMP:  23; 6HR PCP: TRACE;

STEVENS POINT  CLEAR     21   6  53 W9G16     29.87R WCI  11
WAUPACA        CLEAR     23   7  50 W8        29.89S WCI  14
WAUTOMA        CLEAR     18   9  68 W9        29.92R WCI   7
6HR MIN TEMP:  18; 6HR MAX TEMP:  24;

WISC RAPIDS    CLEAR     22   8  55 W9        29.90R WCI  12
6HR MIN TEMP:  17; 6HR MAX TEMP:  25;

CAMP DOUGLAS   NOT AVBL
$$

WIZ011>013-019>022-031-037>040-048>050-260100-
NORTHEAST WISCONSIN

CITY           SKY/WX    TMP DP  RH WIND       PRES   REMARKS
ANTIGO         CLEAR     19   6  55 W6        29.79R WCI  11
SHAWANO        CLEAR     23   9  56 SW5       29.86R WCI  16
OCONTO         CLEAR     21  10  62 W10       29.85R WCI  10
STURGEON BAY   CLEAR     20  12  71 W10       29.85R WCI   9
6HR MIN TEMP:  20; 6HR MAX TEMP:  26; 6HR PCP: TRACE;

GREEN BAY      CLEAR     20  10  65 SW7       29.88R WCI  11
6HR MIN TEMP:  20; 6HR MAX TEMP:  24; 6HR PCP: TRACE;

MANITOWOC      NOT AVBL
APPLETON       PTCLDY    19   7  58 W9        29.87R WCI   9
CLINTONVILLE   CLEAR     21   9  58 SW7       29.87R WCI  13
OSHKOSH        CLEAR     20   8  60 W3        29.90R
6HR MIN TEMP:  20; 6HR MAX TEMP:  22; 6HR PCP: TRACE;

$$

WIZ032>034-041-042-053>061-260100-
SOUTHWEST WISCONSIN

CITY           SKY/WX    TMP DP  RH WIND       PRES   REMARKS
LA CROSSE      CLEAR     26  11  52 W9        29.96S WCI  17
6HR MIN TEMP:  23; 6HR MAX TEMP:  29;

SPARTA         CLEAR     24  11  58 W5        29.95R WCI  18
VIROQUA        CLEAR     22  11  62 W8        29.93S WCI  12
BOSCOBEL       CLEAR     26  12  55 W6        29.98S WCI  19
6HR MIN TEMP:  24; 6HR MAX TEMP:  29;

PRAIRIE DU CHI CLEAR     25  12  56 W13G18    30.00S WCI  14
PLATTEVILLE    CLEAR     24  16  72 W8        29.97S WCI  15
$$

WIZ056-057-062-063-064-067-068-260100-
SOUTH CENTRAL WISCONSIN

CITY           SKY/WX    TMP DP  RH WIND       PRES   REMARKS
REEDSBURG      CLEAR     23  11  58 W9        29.93R WCI  13
BARABOO/DELLS  CLEAR     22  10  58 W7        29.92S WCI  14
LONE ROCK      NOT AVBL
MINERAL POINT  CLEAR     27  19  74 W5        29.94S WCI  21
MADISON        MOCLDY    22  13  68 W5        29.94R WCI  16
6HR MIN TEMP:  18; 6HR MAX TEMP:  25; 6HR PCP: TRACE;

MIDDLETON      CLEAR     24  16  71 W5        29.94R WCI  18
WATERTOWN      CLEAR     22  13  67 W9        29.93R WCI  12
MONROE         CLEAR     25  14  63 W9        29.94S WCI  15
JANESVILLE     PTCLDY    25  12  58 NW8       29.95R WCI  16
$$

WIZ051-052-058>065-066-070>072-260100-
SOUTHEAST WISCONSIN

CITY           SKY/WX    TMP DP  RH WIND       PRES   REMARKS
MILWAUKEE      PTCLDY    24  11  57 W8        29.93R WCI  15
6HR MIN TEMP:  20; 6HR MAX TEMP:  25; 6HR PCP: TRACE;

WAUKESHA       CLEAR     19  10  68 W14       29.93R WCI   6
MILWAUKEE/TIMM CLEAR     21  10  63 W10       29.93R WCI  10
RACINE         PTCLDY    23  11  60 NW12G20   29.95S WCI  12
6HR MIN TEMP:  19; 6HR MAX TEMP:  24; 6HR PCP: TRACE;

KENOSHA        PTCLDY    23  13  65 W10       29.94R WCI  12
6HR MIN TEMP:  20; 6HR MAX TEMP:  24; 6HR PCP: TRACE;

FOND DU LAC    CLEAR     21   9  59 SW5       29.91R WCI  15
6HR MIN TEMP:  20; 6HR MAX TEMP:  23; 6HR PCP: TRACE;

SHEBOYGAN      CLEAR     20  11  68 W14       29.89R WCI   7
6HR MIN TEMP:  20; 6HR MAX TEMP:  22; 6HR PCP: TRACE;

WEST BEND      CLEAR     21  16  79 W3        29.91R
JUNEAU         CLEAR     20  12  70 W5        29.92S WCI  14
$$

LSZ147-162-260100-
LAKE SUPERIOR

STATION/POSITION TIME  TEMP    WIND        PRES    WAVE
                       AIR SEA DIR/SP/G            HT/PER
                 (UTC) (F)     (DEG/KT/KT) (MB)    (FT/S)
DEVILS ISLAND    2300   26     250/ 20/ 24 1009.4S
PORT WING        2340   26     210/  5/  8 1009.1F
SAXON HARBOR     2330   26     280/  3/  7 1009.5S
$$

LMZ867-665-643>646-260100-
LAKE MICHIGAN

STATION/POSITION TIME  TEMP    WIND        PRES    WAVE
                       AIR SEA DIR/SP/G            HT/PER
                 (UTC) (F)     (DEG/KT/KT) (MB)    (FT/S)
CHAMBERS ISLAND  2140   26      CALM  /  2 1007.8R
NORTHPORT PIER   2340   24     280/  1/  2 1009.1R
SISTER BAY       2305   24        CALM       N/A
KEWAUNEE LAKESHO 2330   22     280/ 11/ 17 1010.5R
SHEBOYGAN LAKESH 2300   22     280/ 13/ 15 1012.9R
PORT WASHINGTON  2340   22     270/  8/ 12 1013.9R
MILWAUKEE LAKESH 2330   24     280/ 12/ 18   N/A
KENOSHA   LAKESH 2300   24     290/ 10/ 20 1013.9
$$

TC  - TEMPERATURE IN CELSIUS
VSB - VISIBILITY IN STATUTE MILES
WCI - WIND CHILL INDEX
HX  - HEAT INDEX





USA.gov is the U.S. government's official web portal to all federal, state and local government web resources and services.